Location: Mohawk View
(42.7837°N, 73.7885°W)
Time: 08:16:15
(UTC+00:00)

UNK - Pass Details

Date: 17 June 2021
Orbit: 667 x 686 km, 98.2° (Epoch: 27 July)

Event Time Altitude Azimuth Distance (km) Brightness Sun altitude
Exits shadow 07:20:54 28° 217° (SW) 1,263 4.5 -15.9°
Maximum altitude 07:22:39 38° 262° (W) 1,019 4.3 -15.7°
Drops below altitude 10° 07:26:58 10° 331° (NNW) 2,117 6.6 -15.3°
Sets 07:29:22 0° 339° (NNW) 3,040 7.6 -15.0°
